SL-16 R/B, 20625

Orbit data source: Space-Track

SL-16 R/B, 20625 is space debris in LEO originally from a launch on Tue, 22 May 1990 UTC launched from the Tyuratam Missile And Space Complex (TTMTR). Debris objects in space refer to the collection of defunct objects orbiting the Earth. Examples of debris include non-operational satellites, rocket bodies, and fragments generated from explosions, collisions, or faulty payload assembly.

Loading next visibility...
Identifier
20625, 1990-046B
Orbit
LEO
Country
Flag of CISCIS
Related business
Manufacturer
Yuzhnoe
Mission
Spacecraft
Bus & Motor
11S772, Unknown motor
Mass
9,000 kg wet, 9,000 kg dry
Launch date (UTC)
1990-05-22 (36 years ago)
Launch vehicle
Unknown
Launch site
Tyuratam Missile And Space Complex (TTMTR)
Object type
Payload
Rocket body
Debris
Shape & HBR
Cyl, 5.2 m
Radar Cross Section
37.829 m², Large (>1 m²)

Expand to show TLE details & history
Last TLE update: 5 hours ago

TLE from 5 hours ago
0 SL-16 R/B
1 20625U 90046B   26165.82743390  .00000200  00000-0  12769-3 0  9990
2 20625  70.9997  93.9040 0013510 165.2711 194.8808 14.15025696862133
Epoch: 2026-06-14T19:51Z
TLE epoch observation values (Epoch: 2026-06-14T19:51:30.288Z)
Latitude
-0.00005°
Longitude
-107.0948°
Altitude
854.055 km
Speed
7.421 km/s
True Right ascension
06h 15m 36s
True Declination
0° 00' 00"
Sunlit
Object was in daylight at epoch
Visualization orbit readout
Latitude
Unknown
Longitude
Unknown
Altitude
Unknown
Speed
Unknown
Apparent Right ascension
Unknown
Apparent Declination
Unknown
Sunlit
N/A
Visualization observer readout
Local Sidereal Time
11:23:58
Azimuth
Unknown
Elevation
Unknown
Doppler factor
Unknown
Orbital elements
Apogee altitude
849.902 km
Perigee altitude
830.398 km
Semi-major axis
7,218.287 km
Eccentricity
0.00135
Inclination
70.9997°
RAAN
93.904°
Arg. of periapsis
165.2711°
True anomaly
194.84111°
Mean anomaly
194.8808°
Eccentric anomaly
194.86095°
Mean motion
3.53909 °/min
Orbital period
101.72 mins
BSTAR
0.00012769
Loading maneuver chart data...
Computing Atmospheric mass density...
Loading historical data...
Loading historical data...
Loading historical data...
Loading historical data...
Loading historical data...
Loading historical data...
Loading historical data...
Other satellites on launch #46 in the year 1990 (1990-05-22 UTC)

Documentation

Showing up to 5 results
|